CW9386 Weather Reports


time (UTC)temp
C
wind
direction
speed
KPH
gust
KPH
rain 1hr
cm
rain 24hr
cm
rain mn
cm
humidity
%
barometer
mb
20260506033654 19 210 4.8 11.3 0.00 0.00 0.00 25 1011.6
20260506032642 20 202 4.8 9.7 0.00 0.00 0.00 25 1011.3
20260506030642 20 209 4.8 8.0 0.00 0.00 0.00 24 1011.1
20260506025653 20 248 4.8 12.9 0.00 0.00 0.00 24 1010.9
20260506024648 20 244 4.8 12.9 0.00 0.00 0.00 23 1010.7
20260506023640 21 248 8.0 16.1 0.00 0.00 0.00 23 1010.7
20260506022648 21 229 11.3 17.7 0.00 0.00 0.00 23 1010.5
20260506021643 21 239 9.7 16.1 0.00 0.00 0.00 23 1010.5
20260506020654 21 247 6.4 12.9 0.00 0.00 0.00 23 1010.3
20260506015650 21 242 6.4 20.9 0.00 0.00 0.00 23 1010.2
20260506014645 21 267 9.7 20.9 0.00 0.00 0.00 23 1010.0
20260506011647 22 261 11.3 22.5 0.00 0.00 0.00 28 1010.7
20260506010636 22 255 11.3 20.9 0.00 0.00 0.00 29 1010.7
20260506005647 22 276 11.3 25.7 0.00 0.00 0.00 28 1010.6
20260506004635 22 242 14.5 20.9 0.00 0.00 0.00 27 1010.5
20260506003651 22 295 8.0 16.1 0.00 0.00 0.00 28 1010.5
20260506002641 22 261 8.0 20.9 0.00 0.00 0.00 27 1010.5
20260506001639 22 252 9.7 20.9 0.00 0.00 0.00 28 1010.5
20260506000653 22 225 12.9 24.1 0.00 0.00 0.00 27 1010.5
20260505234640 23 244 11.3 22.5 0.00 0.00 0.00 27 1010.6
20260505233651 23 259 16.1 30.6 0.00 0.00 0.00 27 1010.6
20260505231649 23 260 17.7 27.4 0.00 0.00 0.00 27 1010.7
20260505230646 23 236 12.9 27.4 0.00 0.00 0.00 28 1010.7
20260505225641 23 244 20.9 30.6 0.00 0.00 0.00 27 1010.9
20260505224650 23 207 19.3 32.2 0.00 0.00 0.00 28 1010.9
20260505223644 23 241 14.5 35.4 0.00 0.00 0.00 28 1011.0
20260505222650 23 246 19.3 27.4 0.00 0.00 0.00 27 1011.1
20260505221638 23 231 12.9 29.0 0.00 0.00 0.00 29 1011.2
20260505220636 22 244 16.1 30.6 0.00 0.00 0.00 28 1011.5
20260505215646 22 257 24.1 35.4 0.00 0.00 0.00 28 1011.6
20260505214641 22 248 22.5 32.2 0.00 0.00 0.00 29 1011.7
20260505213637 22 236 16.1 30.6 0.00 0.00 0.00 32 1011.9
20260505212631 22 200 20.9 29.0 0.00 0.00 0.00 33 1012.1
20260505211643 22 215 16.1 30.6 0.00 0.00 0.00 35 1012.3
20260505210634 21 227 12.9 24.1 0.00 0.00 0.00 36 1012.5
20260505204646 21 217 16.1 38.6 0.00 0.00 0.00 36 1013.0
20260505203643 21 256 17.7 33.8 0.00 0.00 0.00 37 1013.1
20260505202639 20 258 20.9 30.6 0.00 0.00 0.00 38 1013.2
20260505200631 20 242 25.7 37.0 0.00 0.00 0.00 38 1013.3
20260505195632 20 253 20.9 38.6 0.00 0.00 0.00 40 1013.5
20260505194645 20 235 22.5 41.8 0.00 0.00 0.00 39 1013.5
20260505192636 18 263 22.5 41.8 0.00 0.00 0.00 45 1013.8
20260505190646 18 234 25.7 46.7 0.00 0.00 0.00 45 1014.0
20260505185639 18 243 22.5 51.5 0.00 0.00 0.00 42 1014.5
20260505184638 18 257 27.4 43.5 0.00 0.00 0.00 40 1014.6
20260505183644 18 250 27.4 43.5 0.00 0.00 0.00 40 1014.4
20260505182639 18 243 29.0 38.6 0.00 0.00 0.00 39 1014.0
20260505181630 19 256 27.4 38.6 0.00 0.00 0.00 39 1013.9
20260505180643 19 280 27.4 40.2 0.00 0.00 0.00 38 1014.0
20260505174629 20 267 24.1 33.8 0.00 0.00 0.00 35 1014.0
20260505173627 20 248 20.9 30.6 0.00 0.00 0.00 34 1013.7
20260505171636 20 225 8.0 27.4 0.00 0.00 0.00 33 1013.7
20260505170636 21 241 16.1 29.0 0.00 0.00 0.00 32 1013.5
20260505165626 20 252 17.7 30.6 0.00 0.00 0.00 33 1013.5
20260505164640 20 206 12.9 22.5 0.00 0.00 0.00 36 1013.4
20260505162627 19 219 11.3 17.7 0.00 0.00 0.00 37 1013.5
20260505161642 18 238 8.0 16.1 0.00 0.00 0.00 40 1013.3
20260505160631 18 273 4.8 9.7 0.00 0.00 0.00 39 1013.3
20260505152633 17 272 6.4 14.5 0.00 0.00 0.00 43 1013.6
20260505151639 17 261 4.8 16.1 0.00 0.00 0.00 43 1013.6
20260505150632 17 274 6.4 12.9 0.00 0.00 0.00 43 1013.5
20260505124719 14 165 1.6 6.4 0.00 0.00 0.00 55 1013.2
20260505123726 13 202 1.6 8.0 0.00 0.00 0.00 55 1013.2
20260505122740 13 168 4.8 8.0 0.00 0.00 0.00 55 1013.1
20260505121736 14 155 4.8 8.0 0.00 0.00 0.00 54 1013.0
20260505120733 14 169 3.2 9.7 0.00 0.00 0.00 53 1012.9
20260505115725 14 165 1.6 6.4 0.00 0.00 0.00 52 1012.8
20260505114720 15 207 0.0 3.2 0.00 0.00 0.00 52 1012.9
20260505112737 15 190 1.6 6.4 0.00 0.00 0.00 50 1012.8
20260505111736 15 207 3.2 8.0 0.00 0.00 0.00 49 1012.6
20260505110731 15 178 3.2 6.4 0.00 0.00 0.00 49 1012.7
20260505100727 16 189 3.2 6.4 0.00 0.00 0.00 45 1012.5
20260505095736 16 199 3.2 6.4 0.00 0.00 0.00 45 1012.4
20260505094733 16 195 3.2 6.4 0.00 0.00 0.00 45 1012.4
20260505093730 16 192 4.8 12.9 0.00 0.00 0.00 45 1012.2
20260505092724 15 195 9.7 19.3 0.00 0.00 0.00 46 1012.2
20260505091724 15 173 1.6 8.0 0.00 0.00 0.00 46 1012.2
20260505090716 16 164 4.8 8.0 0.00 0.00 0.00 46 1012.5
20260505085733 16 178 4.8 8.0 0.00 0.00 0.00 45 1012.6
20260505083729 16 279 8.0 12.9 0.00 0.00 0.00 44 1012.6
20260505081717 16 194 4.8 6.4 0.00 0.00 0.00 41 1012.7
20260505074729 17 20 1.6 4.8 0.00 0.00 0.00 35 1013.0
20260505073726 18 19 1.6 8.0 0.00 0.00 0.00 33 1012.9
20260505072720 18 21 4.8 9.7 0.00 0.00 0.00 33 1013.2
20260505071717 18 197 1.6 4.8 0.00 0.00 0.00 33 1013.1
20260505070723 18 252 3.2 11.3 0.00 0.00 0.00 33 1012.8
20260505065716 18 276 8.0 14.5 0.00 0.00 0.00 32 1012.4
20260505064731 19 234 6.4 9.7 0.00 0.00 0.00 30 1012.4
20260505063719 19 271 4.8 11.3 0.00 0.00 0.00 28 1012.5
20260505062734 19 229 3.2 14.5 0.00 0.00 0.00 28 1012.6
20260505061719 19 267 4.8 12.9 0.00 0.00 0.00 28 1012.5
20260505060714 19 246 6.4 11.3 0.00 0.00 0.00 28 1012.9
20260505055725 19 195 3.2 8.0 0.00 0.00 0.00 28 1013.1
20260505054715 20 221 3.2 6.4 0.00 0.00 0.00 27 1013.2
20260505053728 20 234 4.8 11.3 0.00 0.00 0.00 26 1013.0
20260505052728 20 267 1.6 6.4 0.00 0.00 0.00 25 1012.9
20260505051723 20 281 4.8 9.7 0.00 0.00 0.00 24 1013.1
20260505050719 20 260 3.2 6.4 0.00 0.00 0.00 24 1012.8
20260505041714 21 286 6.4 11.3 0.00 0.00 0.00 20 1013.0
20260505040730 21 299 4.8 12.9 0.00 0.00 0.00 19 1013.0
20260505035719 21 265 9.7 16.1 0.00 0.00 0.00 19 1012.9